Vernal, UT

4:30 AM MDT on May 20, 2018 (GMT -0600)
Vernal

Weather History for KVEL - May, 2014

Change the Weather History Date:

Saturday, May 10, 2014

  Actual Average Record
Temperature  
Mean Temperature 51 °F 55 °F  
Max Temperature 65 °F 68 °F 86 °F (2018)
Min Temperature 36 °F 42 °F 24 °F (1943)
Degree Days  
Heating Degree Days 14 10  
Month to date heating degree days 110 118  
Since 1 July heating degree days 7198 6997  
Cooling Degree Days 0 0  
Month to date cooling degree days 0 0  
Year to date cooling degree days 0 0  
Moisture  
Dew Point 31 °F    
Average Humidity 52    
Maximum Humidity 76    
Minimum Humidity 27    
Precipitation  
Precipitation 0.08 in 0.03 in 0.41 in (2005)
Month to date precipitation 0.08 0.33  
Year to date precipitation 1.91 2.85  
Sea Level Pressure  
Sea Level Pressure 29.76 in    
Wind  
Wind Speed 9 mph (North)    
Max Wind Speed 24 mph    
Max Gust Speed 32 mph    
Visibility 10 miles    
Events Rain    
T = Trace of Precipitation, MM = Missing Value Source: NWS Daily Summary

Daily Weather History Graph

Daily Weather History Graph

Search for Another Location

Airport or City:

Astronomy

May. 10, 2014 Rise Set
Actual Time 6:06 AM MDT 8:22 PM MDT
Civil Twilight 5:36 AM MDT 8:53 PM MDT
Nautical Twilight 4:58 AM MDT 9:31 PM MDT
Astronomical Twilight 4:17 AM MDT 10:12 PM MDT
Moon 4:21 PM MDT (5/10) 3:42 AM MDT (5/10)
Length of Visible Light 15h 17m
Length of Day
14h 16m
Waxing Gibbous, 82% of the Moon is Illuminated
May 10
Waxing Gibbous
May 14
Full
May 21
Last Quarter
May 28
New
Jun 5
First Quarter

Hourly Weather History & Observations

Time (MDT) Temp. Windchill Dew Point Humidity Pressure Visibility Wind Dir Wind Speed Gust Speed Precip Events Conditions
12:53 AM 39.9 °F 35.8 °F 27.0 °F 60% 29.86 in 10.0 mi WNW 5.8 mph - N/A   Clear
1:53 AM 41.0 °F - 28.9 °F 62% 29.84 in 10.0 mi Calm Calm - N/A   Mostly Cloudy
2:53 AM 43.0 °F 39.5 °F 27.0 °F 53% 29.83 in 10.0 mi NNW 5.8 mph - N/A   Overcast
3:53 AM 39.9 °F 36.7 °F 26.1 °F 58% 29.83 in 10.0 mi WNW 4.6 mph - N/A   Clear
5:53 AM 36.0 °F 31.1 °F 25.0 °F 64% 29.83 in 10.0 mi West 5.8 mph - N/A   Clear
6:53 AM 39.0 °F 34.0 °F 27.0 °F 62% 29.83 in 10.0 mi WNW 6.9 mph - N/A   Clear
7:53 AM 46.9 °F - 28.0 °F 48% 29.80 in 10.0 mi Calm Calm - N/A   Clear
8:53 AM 46.9 °F - 30.0 °F 52% 29.81 in 10.0 mi Calm Calm - N/A   Mostly Cloudy
9:53 AM 50.0 °F - 32.0 °F 50% 29.81 in 10.0 mi SE 3.5 mph - N/A   Mostly Cloudy
10:53 AM 53.1 °F - 33.1 °F 47% 29.77 in 10.0 mi Variable 5.8 mph - N/A   Mostly Cloudy
11:53 AM 55.0 °F - 32.0 °F 42% 29.75 in 10.0 mi SSE 8.1 mph - N/A   Mostly Cloudy
12:53 PM 59.0 °F - 28.0 °F 31% 29.72 in 10.0 mi South 6.9 mph - N/A   Clear
1:53 PM 61.0 °F - 28.9 °F 30% 29.68 in 10.0 mi SW 9.2 mph 18.4 mph N/A   Mostly Cloudy
2:53 PM 63.0 °F - 28.0 °F 27% 29.65 in 10.0 mi South 11.5 mph 18.4 mph N/A   Scattered Clouds
3:53 PM 61.0 °F - 27.0 °F 27% 29.63 in 10.0 mi South 6.9 mph - N/A   Mostly Cloudy
4:53 PM 57.0 °F - 30.0 °F 36% 29.66 in 10.0 mi WSW 13.8 mph - N/A   Overcast
5:53 PM 55.0 °F - 32.0 °F 42% 29.67 in 10.0 mi North 11.5 mph - N/A   Overcast
6:53 PM 52.0 °F - 33.1 °F 49% 29.68 in 10.0 mi NNE 18.4 mph 24.2 mph N/A   Overcast
7:53 PM 48.0 °F - 32.0 °F 54% 29.67 in 10.0 mi ENE 18.4 mph 25.3 mph N/A   Mostly Cloudy
8:53 PM 46.9 °F - 33.1 °F 59% 29.70 in 10.0 mi ENE 12.7 mph 23.0 mph 0.00 in Rain Light Rain
9:47 PM 42.8 °F 34.8 °F 35.6 °F 76% 29.82 in 8.0 mi North 17.3 mph - 0.02 in Rain Light Rain
9:53 PM 42.1 °F 33.9 °F 36.0 °F 79% 29.77 in 8.0 mi NNE 17.3 mph - 0.03 in Rain Rain
10:32 PM 41.0 °F 32.2 °F 36.0 °F 82% 29.83 in 10.0 mi NE 18.4 mph 25.3 mph 0.05 in Rain Light Rain
10:53 PM 41.0 °F 33.1 °F 36.0 °F 82% 29.76 in 10.0 mi ENE 15.0 mph - 0.05 in   Overcast
11:53 PM 44.1 °F 36.8 °F 34.0 °F 68% 29.71 in 10.0 mi NE 16.1 mph 23.0 mph N/A   Overcast